Regional Weather Roundup
Issued by NWS Little Rock, AR

Home | Current Version | Previous Version | Text Only | Print | Product List | Glossary On
Versions: 1 2 3 4 5 6 7 8 9 10 11 12 13 14 15 16 17 18 19 20 21 22 23 24 25 26 27 28 29 30 31
000
ASUS44 KLZK 241005
RWRLZK

WEATHER ROUNDUP FOR ARKANSAS
NATIONAL WEATHER SERVICE LITTLE ROCK AR
400 AM CST SAT FEB 24 2018

NOTE: "FAIR" INDICATES FEW OR NO CLOUDS BELOW 12,000 FEET WITH NO
SIGNIFICANT WEATHER AND/OR OBSTRUCTIONS TO VISIBILITY.

ARZ001-003-010-029-241100-
NORTHWEST ARKANSAS

CITY           SKY/WX    TMP DP  RH WIND       PRES   REMARKS
FAYETTEVILLE   LGT RAIN  51  51 100 CALM      29.95F
FORT SMITH     LGT RAIN  53  53 100 NE5       29.94F FOG
HARRISON       LGT RAIN  48  48 100 NE3       29.95F
BENTONVILLE    LGT RAIN  50  50 100 SE5       29.95F FOG
ROGERS         LGT RAIN  49  48  97 E5        29.94F
SILOAM SPGS    LGT RAIN  52  51  97 SE6       29.93F
HIGHFILL       LGT RAIN  51  51 100 S6        29.94F FOG
$$

ARZ004-005-016-241100-
NORTH CENTRAL ARKANSAS

CITY           SKY/WX    TMP DP  RH WIND       PRES   REMARKS
BATESVILLE     LGT RAIN  50  48  93 CALM      29.99F VSB 1
FLIPPIN        CLOUDY    50  49  96 CALM      29.96F FOG
MTN HOME       CLOUDY    49  49 100 VRB7      29.94F FOG
$$

ARZ040-041-241100-
WEST CENTRAL ARKANSAS

CITY           SKY/WX    TMP DP  RH WIND       PRES   REMARKS
MENA           CLOUDY   N/A N/A N/A SW5       29.94S
MOUNT IDA      CLOUDY    62  62 100 VRB3      29.92F
$$

ARZ009-017-025-026-028-241100-
NORTHEAST ARKANSAS

CITY           SKY/WX    TMP DP  RH WIND       PRES   REMARKS
JONESBORO      CLOUDY    54  54 100 E5        29.99F
NEWPORT        LGT RAIN  53  53 100 CALM      29.99F FOG
WALNUT RIDGE   LGT RAIN  51  51 100 CALM      29.99S FOG
BLYTHEVILLE    CLOUDY    57  55  93 SE7       30.00F
$$

ARZ022-023-033-042-044-241100-
CENTRAL ARKANSAS

CITY           SKY/WX    TMP DP  RH WIND       PRES   REMARKS
LITTLE ROCK    FOG       53  53 100 CALM      29.98F VSB 1/8
N LITTLE ROCK    N/A     54  54 100 CALM      29.96F
JACKSONVILLE   FOG       55  55 100 SE3       29.97F VSB 3/4
SEARCY         FOG       52  32  46 CALM      29.99F VSB 1/2
HOT SPRINGS    FOG       57  57 100 E7        29.97F VSB 3/4
RUSSELLVILLE   CLOUDY    52  52 100 CALM      29.94F FOG
CLINTON        FOG       52  50  93 CALM      29.97F VSB 1/2
$$

ARZ036-241100-
EAST ARKANSAS

CITY           SKY/WX    TMP DP  RH WIND       PRES   REMARKS
WEST MEMPHIS   CLOUDY    62  62 100 S10       29.99F FOG
$$

ARZ050-053-066-070-073-241100-
SOUTHWEST ARKANSAS

CITY           SKY/WX    TMP DP  RH WIND       PRES   REMARKS
ARKADELPHIA    FOG       55  55 100 CALM      29.97F VSB 1/2
CAMDEN         CLOUDY    68  63  83 S8        29.98F FOG
TEXARKANA      MOCLDY    64  63  96 S13       29.95F
EL DORADO      CLOUDY    66  66 100 S7        29.99F
DE QUEEN       CLOUDY    63  63 100 S5        29.93F FOG
$$

ARZ056-057-069-241100-
SOUTHEAST ARKANSAS

CITY           SKY/WX    TMP DP  RH WIND       PRES   REMARKS
PINE BLUFF     CLOUDY    57  57 100 CALM      30.00S FOG
STUTTGART      LGT RAIN  60  60 100 S7        30.00S VSB 1/2
MONTICELLO     CLOUDY    68  65  90 S6        30.01S

$$






USA.gov is the U.S. government's official web portal to all federal, state and local government web resources and services.